Weather History for Sheldon, IA

Change the Weather History Date:

Saturday, February 22, 2014

  Actual Average Record
Temperature  
Mean Temperature 20 °F -  
Max Temperature 26 °F 34 °F 59 °F (2000)
Min Temperature 14 °F 15 °F -16 °F (1962)
Degree Days  
Heating Degree Days 45    
Moisture  
Dew Point 9 °F    
Average Humidity 63    
Maximum Humidity 79    
Minimum Humidity 50    
Precipitation  
Precipitation 0.00 in - - ()
Sea Level Pressure  
Sea Level Pressure 30.01 in    
Wind  
Wind Speed 9 mph (NW)    
Max Wind Speed 15 mph    
Max Gust Speed 22 mph    
Visibility 10 miles    
Events      
Averages and records for this station are not official NWS values.
T = Trace of Precipitation, MM = Missing Value Source: NWS Daily Summary

Daily Weather History Graph

Daily Weather History Graph

Search for Another Location

Airport:

Trip Planner

Search our weather history database for the weather conditions in past years. The results will help you decide how hot, cold, wet, or windy it might be!

Date:

Astronomy

Feb. 22, 2014 Rise Set
Actual Time 7:10 AM CST 6:03 PM CST
Civil Twilight 6:41 AM CST 6:32 PM CST
Nautical Twilight 6:08 AM CST 7:05 PM CST
Astronomical Twilight 5:35 AM CST 7:38 PM CST
Moon 1:10 AM CST (2/22) 11:11 AM CST (2/22)
Length of Visible Light 11h 50m
Length of Day
10h 52m
Waning Gibbous, 50% of the Moon is Illuminated
Feb 22
Waning Gibbous
Mar 1
New
Mar 8
First Quarter
Mar 16
Full
Mar 23
Last Quarter

Hourly Weather History & Observations

Time (CST) Temp. Windchill Dew Point Humidity Pressure Visibility Wind Dir Wind Speed Gust Speed Precip Events Conditions
12:15 AM 19.4 °F 8.6 °F 8.6 °F 63% 29.85 in 10.0 mi NW 9.2 mph - N/A   Scattered Clouds
12:35 AM 19.4 °F 9.5 °F 8.6 °F 63% 29.86 in 10.0 mi NW 8.1 mph - N/A   Mostly Cloudy
12:55 AM 17.6 °F 9.3 °F 8.6 °F 68% 29.86 in 10.0 mi WNW 5.8 mph - N/A   Scattered Clouds
1:15 AM 17.6 °F - 6.8 °F 63% 29.87 in 10.0 mi Calm Calm - N/A   Clear
1:35 AM 17.6 °F 12.3 °F 6.8 °F 63% 29.88 in 10.0 mi NW 3.5 mph - N/A   Mostly Cloudy
1:55 AM 17.6 °F 6.4 °F 6.8 °F 63% 29.88 in 10.0 mi NW 9.2 mph - N/A   Overcast
2:15 AM 17.6 °F 8.2 °F 5.0 °F 58% 29.88 in 10.0 mi NNW 6.9 mph - N/A   Overcast
2:35 AM 17.6 °F 7.3 °F 5.0 °F 58% 29.89 in 10.0 mi NNW 8.1 mph - N/A   Overcast
2:55 AM 17.6 °F 7.3 °F 6.8 °F 63% 29.90 in 10.0 mi NW 8.1 mph - N/A   Overcast
3:15 AM 17.6 °F 5.7 °F 5.0 °F 58% 29.89 in 10.0 mi NNW 10.4 mph - N/A   Overcast
3:35 AM 17.6 °F 6.4 °F 5.0 °F 58% 29.90 in 10.0 mi NW 9.2 mph - N/A   Overcast
3:55 AM 17.6 °F 5.7 °F 5.0 °F 58% 29.91 in 10.0 mi NW 10.4 mph - N/A   Overcast
4:15 AM 17.6 °F 5.7 °F 5.0 °F 58% 29.92 in 10.0 mi WNW 10.4 mph - N/A   Overcast
4:35 AM 17.6 °F 7.3 °F 3.2 °F 53% 29.91 in 10.0 mi NW 8.1 mph - N/A   Overcast
4:55 AM 17.6 °F 8.2 °F 6.8 °F 63% 29.92 in 10.0 mi NW 6.9 mph - N/A   Overcast
5:15 AM 15.8 °F 6.1 °F 6.8 °F 68% 29.93 in 10.0 mi NW 6.9 mph - N/A   Overcast
5:35 AM 17.6 °F 7.3 °F 5.0 °F 58% 29.93 in 10.0 mi NW 8.1 mph - N/A   Mostly Cloudy
5:55 AM 17.6 °F 8.2 °F 6.8 °F 63% 29.94 in 10.0 mi NW 6.9 mph - N/A   Overcast
6:15 AM 17.6 °F 8.2 °F 6.8 °F 63% 29.95 in 10.0 mi NW 6.9 mph - N/A   Overcast
6:35 AM 17.6 °F 5.7 °F 6.8 °F 63% 29.96 in 10.0 mi WNW 10.4 mph - N/A   Overcast
6:55 AM 15.8 °F 6.1 °F 5.0 °F 62% 29.96 in 10.0 mi WNW 6.9 mph - N/A   Overcast
7:15 AM 15.8 °F 3.4 °F 6.8 °F 68% 29.97 in 10.0 mi NW 10.4 mph - N/A   Overcast
7:35 AM 15.8 °F 5.1 °F 6.8 °F 68% 29.98 in 10.0 mi WNW 8.1 mph - N/A   Overcast
7:55 AM 15.8 °F 4.2 °F 6.8 °F 68% 29.98 in 10.0 mi NW 9.2 mph - N/A   Overcast
8:15 AM 15.8 °F 4.2 °F 6.8 °F 68% 29.99 in 10.0 mi NW 9.2 mph - N/A   Mostly Cloudy
8:35 AM 15.8 °F 2.7 °F 6.8 °F 68% 30.00 in 10.0 mi NW 11.5 mph - N/A   Partly Cloudy
8:55 AM 17.6 °F 4.3 °F 6.8 °F 63% 30.00 in 10.0 mi NW 12.7 mph - N/A   Clear
9:15 AM 17.6 °F 3.2 °F 6.8 °F 63% 30.01 in 10.0 mi NW 15.0 mph - N/A   Clear
9:35 AM 17.6 °F 3.2 °F 6.8 °F 63% 30.01 in 10.0 mi NW 15.0 mph - N/A   Clear
9:55 AM 17.6 °F 3.7 °F 8.6 °F 68% 30.02 in 10.0 mi NW 13.8 mph - N/A   Clear
10:15 AM 19.4 °F 6.6 °F 8.6 °F 63% 30.01 in 10.0 mi NW 12.7 mph - N/A   Clear
10:35 AM 19.4 °F 6.6 °F 6.8 °F 58% 30.01 in 10.0 mi NW 12.7 mph - N/A   Clear
10:55 AM 19.4 °F 6.6 °F 8.6 °F 63% 30.03 in 10.0 mi NNW 12.7 mph - N/A   Clear
11:15 AM 19.4 °F 6.6 °F 6.8 °F 58% 30.03 in 10.0 mi NW 12.7 mph - N/A   Clear
11:35 AM 21.2 °F 7.8 °F 8.6 °F 58% 30.03 in 10.0 mi NW 15.0 mph - N/A   Clear
11:55 AM 21.2 °F 8.3 °F 8.6 °F 58% 30.02 in 10.0 mi NW 13.8 mph - N/A   Clear
12:15 PM 21.2 °F 7.8 °F 8.6 °F 58% 30.02 in 10.0 mi NW 15.0 mph - N/A   Clear
12:35 PM 23.0 °F 11.1 °F 8.6 °F 54% 30.02 in 10.0 mi NW 12.7 mph 18.4 mph N/A   Clear
12:55 PM 23.0 °F 10.6 °F 8.6 °F 54% 30.01 in 10.0 mi NNW 13.8 mph 19.6 mph N/A   Clear
1:15 PM 23.0 °F 11.1 °F 10.4 °F 59% 30.01 in 10.0 mi NW 12.7 mph 19.6 mph N/A   Clear
1:35 PM 24.8 °F 12.9 °F 8.6 °F 50% 30.01 in 10.0 mi NW 13.8 mph 20.7 mph N/A   Clear
1:55 PM 24.8 °F 12.4 °F 10.4 °F 54% 30.01 in 10.0 mi NW 15.0 mph - N/A   Clear
2:15 PM 24.8 °F 13.4 °F 8.6 °F 50% 30.01 in 10.0 mi NW 12.7 mph - N/A   Clear
2:35 PM 24.8 °F 12.4 °F 10.4 °F 54% 30.02 in 10.0 mi NW 15.0 mph 21.9 mph N/A   Clear
2:55 PM 24.8 °F 12.4 °F 10.4 °F 54% 30.02 in 10.0 mi WNW 15.0 mph - N/A   Clear
3:15 PM 26.6 °F 15.2 °F 12.2 °F 55% 30.02 in 10.0 mi NW 13.8 mph - N/A   Clear
3:35 PM 26.6 °F 15.7 °F 10.4 °F 51% 30.02 in 10.0 mi WNW 12.7 mph 18.4 mph N/A   Clear
3:55 PM 26.6 °F 15.2 °F 12.2 °F 55% 30.03 in 10.0 mi NW 13.8 mph - N/A   Clear
4:15 PM 26.6 °F 15.2 °F 12.2 °F 55% 30.03 in 10.0 mi NNW 13.8 mph - N/A   Clear
4:35 PM 24.8 °F 13.4 °F 12.2 °F 59% 30.03 in 10.0 mi NNW 12.7 mph - N/A   Clear
4:55 PM 24.8 °F 12.4 °F 12.2 °F 59% 30.04 in 10.0 mi NW 15.0 mph - N/A   Clear
5:15 PM 24.8 °F 12.9 °F 10.4 °F 54% 30.04 in 10.0 mi NW 13.8 mph - N/A   Clear
5:35 PM 24.8 °F 13.4 °F 12.2 °F 59% 30.05 in 10.0 mi NW 12.7 mph - N/A   Clear
5:55 PM 23.0 °F 13.1 °F 14.0 °F 68% 30.06 in 10.0 mi NW 9.2 mph - N/A   Partly Cloudy
6:15 PM 23.0 °F 13.1 °F 14.0 °F 68% 30.06 in 10.0 mi NW 9.2 mph - N/A   Scattered Clouds
6:35 PM 21.2 °F 11.7 °F 12.2 °F 68% 30.07 in 10.0 mi NW 8.1 mph - N/A   Mostly Cloudy
6:55 PM 21.2 °F 10.9 °F 12.2 °F 68% 30.07 in 10.0 mi NNW 9.2 mph - N/A   Overcast
7:15 PM 21.2 °F 10.9 °F 14.0 °F 74% 30.08 in 10.0 mi NNW 9.2 mph - N/A   Overcast
7:35 PM 19.4 °F 8.6 °F 12.2 °F 74% 30.09 in - NNW 9.2 mph - N/A   Overcast
7:55 PM 19.4 °F 10.4 °F 12.2 °F 74% 30.10 in 10.0 mi NW 6.9 mph - N/A   Overcast
8:15 PM 17.6 °F 8.2 °F 12.2 °F 79% 30.11 in 10.0 mi NW 6.9 mph - N/A   Overcast
8:35 PM 17.6 °F 6.4 °F 10.4 °F 73% 30.11 in 10.0 mi NNW 9.2 mph - N/A   Mostly Cloudy
8:55 PM 17.6 °F 6.4 °F 10.4 °F 73% 30.14 in 10.0 mi NNW 9.2 mph - N/A   Mostly Cloudy
9:15 PM 17.6 °F 8.2 °F 10.4 °F 73% 30.15 in 10.0 mi NW 6.9 mph - N/A   Overcast
9:35 PM 17.6 °F 6.4 °F 10.4 °F 73% 30.14 in 10.0 mi NNW 9.2 mph - N/A   Overcast
9:55 PM 15.8 °F 4.2 °F 10.4 °F 79% 30.14 in 10.0 mi NNW 9.2 mph - N/A   Mostly Cloudy
10:15 PM 15.8 °F 4.2 °F 8.6 °F 73% 30.15 in 10.0 mi NNW 9.2 mph - N/A   Scattered Clouds
10:35 PM 15.8 °F 4.2 °F 8.6 °F 73% 30.16 in 10.0 mi NNW 9.2 mph - N/A   Clear
10:55 PM 14.0 °F 3.9 °F 8.6 °F 79% 30.17 in 10.0 mi NW 6.9 mph - N/A   Partly Cloudy
11:15 PM 14.0 °F 3.9 °F 8.6 °F 79% 30.17 in 10.0 mi NW 6.9 mph - N/A   Mostly Cloudy
11:35 PM 14.0 °F 1.2 °F 6.8 °F 73% 30.17 in 10.0 mi NNW 10.4 mph - N/A   Overcast
11:55 PM 14.0 °F 2.9 °F 6.8 °F 73% 30.18 in 10.0 mi NW 8.1 mph - N/A   Mostly Cloudy